Time,TemperatureF,DewpointF,PressureIn,WindDirection,WindDirectionDegrees,WindSpeedMPH,WindSpeedGustMPH,Humidity,HourlyPrecipIn,Conditions,Clouds,dailyrainin,SoftwareType,DateUTC
2013-05-16 00:02:00,62.0,44.0,29.91,NW,318,5.0,6.0,51,0.00,,,0.00,,2013-05-16 05:02:00,
2013-05-16 00:12:00,62.0,44.0,29.91,NW,318,5.0,6.0,51,0.00,,,0.00,,2013-05-16 05:12:00,
2013-05-16 00:22:00,63.0,44.0,29.91,NW,308,6.0,7.0,50,0.00,,,0.00,,2013-05-16 05:22:00,
2013-05-16 00:32:00,63.0,45.0,29.91,NW,304,5.0,7.0,51,0.00,,,0.00,,2013-05-16 05:32:00,
2013-05-16 00:42:00,63.0,45.0,29.91,NW,304,5.0,7.0,51,0.00,,,0.00,,2013-05-16 05:42:00,
2013-05-16 00:52:00,62.0,44.0,29.91,NW,309,6.0,7.0,51,0.00,,,0.00,,2013-05-16 05:52:00,
2013-05-16 01:01:00,62.0,44.0,29.91,WNW,286,7.0,9.0,51,0.00,,,0.00,,2013-05-16 06:01:00,
2013-05-16 01:12:00,62.0,44.0,29.91,WNW,286,7.0,9.0,51,0.00,,,0.00,,2013-05-16 06:12:00,
2013-05-16 01:22:00,62.0,44.0,29.91,NW,323,6.0,9.0,52,0.00,,,0.00,,2013-05-16 06:22:00,
2013-05-16 01:33:00,61.0,43.0,29.91,NW,309,7.0,10.0,52,0.00,,,0.00,,2013-05-16 06:33:00,
2013-05-16 01:43:00,61.0,43.0,29.91,NW,309,7.0,10.0,52,0.00,,,0.00,,2013-05-16 06:43:00,
2013-05-16 01:53:00,62.0,44.0,29.91,NW,323,6.0,9.0,52,0.00,,,0.00,,2013-05-16 06:53:00,
2013-05-16 02:02:00,61.0,43.0,29.91,NW,319,6.0,8.0,52,0.00,,,0.00,,2013-05-16 07:02:00,
2013-05-16 02:12:00,61.0,43.0,29.91,NW,319,6.0,8.0,52,0.00,,,0.00,,2013-05-16 07:12:00,
2013-05-16 02:24:00,61.0,44.0,29.91,NNW,327,6.0,8.0,53,0.00,,,0.00,,2013-05-16 07:24:00,
2013-05-16 02:34:00,61.0,44.0,29.91,NW,304,6.0,8.0,54,0.00,,,0.00,,2013-05-16 07:34:00,
2013-05-16 02:44:00,61.0,44.0,29.91,NW,304,6.0,8.0,54,0.00,,,0.00,,2013-05-16 07:44:00,
2013-05-16 02:54:00,60.0,44.0,29.91,NW,310,6.0,8.0,55,0.00,,,0.00,,2013-05-16 07:54:00,
2013-05-16 03:03:00,60.0,44.0,29.91,NW,305,7.0,9.0,56,0.00,,,0.00,,2013-05-16 08:03:00,
2013-05-16 03:13:00,60.0,44.0,29.91,NW,305,7.0,9.0,56,0.00,,,0.00,,2013-05-16 08:13:00,
2013-05-16 03:23:00,60.0,45.0,29.92,WNW,297,7.0,9.0,57,0.00,,,0.00,,2013-05-16 08:23:00,
2013-05-16 03:34:00,59.0,44.0,29.93,WNW,297,6.0,8.0,58,0.00,,,0.00,,2013-05-16 08:34:00,
2013-05-16 03:44:00,59.0,44.0,29.93,WNW,297,6.0,8.0,58,0.00,,,0.00,,2013-05-16 08:44:00,
2013-05-16 03:55:00,60.0,45.0,29.93,NW,315,6.0,9.0,57,0.00,,,0.00,,2013-05-16 08:55:00,
2013-05-16 04:04:00,60.0,45.0,29.93,NW,311,6.0,9.0,57,0.00,,,0.00,,2013-05-16 09:04:00,
2013-05-16 04:14:00,60.0,45.0,29.94,NW,318,5.0,8.0,57,0.00,,,0.00,,2013-05-16 09:14:00,
2013-05-16 04:24:00,60.0,45.0,29.94,NW,318,5.0,8.0,57,0.00,,,0.00,,2013-05-16 09:24:00,
2013-05-16 04:35:00,60.0,45.0,29.93,NW,313,6.0,8.0,58,0.00,,,0.00,,2013-05-16 09:35:00,
2013-05-16 04:45:00,60.0,45.0,29.93,NW,313,6.0,8.0,58,0.00,,,0.00,,2013-05-16 09:45:00,
2013-05-16 04:55:00,60.0,46.0,29.93,NW,311,5.0,8.0,59,0.00,,,0.00,,2013-05-16 09:55:00,
2013-05-16 05:05:00,60.0,46.0,29.93,NW,310,6.0,8.0,59,0.00,,,0.00,,2013-05-16 10:05:00,
2013-05-16 05:15:00,60.0,45.0,29.94,NW,311,6.0,9.0,58,0.00,,,0.00,,2013-05-16 10:15:00,
2013-05-16 05:24:00,60.0,45.0,29.94,NW,311,6.0,9.0,58,0.00,,,0.00,,2013-05-16 10:24:00,
2013-05-16 05:36:00,60.0,46.0,29.94,NW,308,6.0,8.0,59,0.00,,,0.00,,2013-05-16 10:36:00,
2013-05-16 05:45:00,60.0,46.0,29.94,NW,308,6.0,8.0,59,0.00,,,0.00,,2013-05-16 10:45:00,
2013-05-16 05:56:00,60.0,46.0,29.95,NW,309,6.0,8.0,59,0.00,,,0.00,,2013-05-16 10:56:00,
2013-05-16 06:05:00,60.0,46.0,29.95,NW,307,6.0,8.0,60,0.00,,,0.00,,2013-05-16 11:05:00,
2013-05-16 06:14:00,60.0,46.0,29.95,NW,307,6.0,8.0,60,0.00,,,0.00,,2013-05-16 11:14:00,
2013-05-16 06:25:00,60.0,46.0,29.95,NW,320,6.0,7.0,60,0.00,,,0.00,,2013-05-16 11:25:00,
2013-05-16 06:35:00,60.0,46.0,29.96,WNW,296,5.0,7.0,59,0.00,,,0.00,,2013-05-16 11:35:00,
2013-05-16 06:46:00,60.0,46.0,29.96,WNW,296,5.0,7.0,59,0.00,,,0.00,,2013-05-16 11:46:00,
2013-05-16 06:57:00,60.0,46.0,29.97,WNW,296,5.0,7.0,60,0.00,,,0.00,,2013-05-16 11:57:00,
2013-05-16 07:06:00,61.0,47.0,29.97,NW,305,5.0,7.0,59,0.00,,,0.00,,2013-05-16 12:06:00,
2013-05-16 07:13:00,61.0,47.0,29.97,NW,305,5.0,7.0,59,0.00,,,0.00,,2013-05-16 12:13:00,
2013-05-16 07:23:00,61.0,48.0,29.97,NW,314,4.0,7.0,62,0.00,,,0.00,,2013-05-16 12:23:00,
2013-05-16 07:34:00,62.0,47.0,29.98,NW,313,4.0,7.0,59,0.00,,,0.00,,2013-05-16 12:34:00,
2013-05-16 07:45:00,62.0,47.0,29.98,NW,313,4.0,7.0,59,0.00,,,0.00,,2013-05-16 12:45:00,
2013-05-16 07:53:00,63.0,49.0,29.98,NW,309,4.0,8.0,60,0.00,,,0.00,,2013-05-16 12:53:00,
2013-05-16 08:04:00,64.0,48.0,29.98,WNW,298,4.0,9.0,57,0.00,,,0.00,,2013-05-16 13:04:00,
2013-05-16 08:12:00,64.0,48.0,29.98,WNW,298,4.0,9.0,57,0.00,,,0.00,,2013-05-16 13:12:00,
2013-05-16 08:26:00,65.0,49.0,29.98,NW,321,4.0,8.0,57,0.00,,,0.00,,2013-05-16 13:26:00,
2013-05-16 08:35:00,66.0,50.0,29.98,NW,317,4.0,7.0,56,0.00,,,0.00,,2013-05-16 13:35:00,
2013-05-16 08:43:00,66.0,50.0,29.98,NW,317,4.0,7.0,56,0.00,,,0.00,,2013-05-16 13:43:00,
2013-05-16 08:55:00,68.0,51.0,29.99,NNW,336,1.0,7.0,55,0.00,,,0.00,,2013-05-16 13:55:00,
2013-05-16 09:05:00,70.0,51.0,29.99,NW,315,2.0,6.0,51,0.00,,,0.00,,2013-05-16 14:05:00,
2013-05-16 09:16:00,70.0,51.0,29.99,NW,315,2.0,6.0,51,0.00,,,0.00,,2013-05-16 14:16:00,
2013-05-16 09:23:00,71.0,52.0,29.99,NNW,330,1.0,6.0,51,0.00,,,0.00,,2013-05-16 14:23:00,
2013-05-16 09:37:00,73.0,50.0,29.99,North,360,2.0,4.0,44,0.00,,,0.00,,2013-05-16 14:37:00,
2013-05-16 09:47:00,73.0,50.0,29.99,North,360,2.0,4.0,44,0.00,,,0.00,,2013-05-16 14:47:00,
2013-05-16 09:56:00,74.0,50.0,29.99,NNW,341,2.0,5.0,43,0.00,,,0.00,,2013-05-16 14:56:00,
2013-05-16 10:08:00,74.0,49.0,29.99,North,351,2.0,6.0,41,0.00,,,0.00,,2013-05-16 15:08:00,
2013-05-16 10:17:00,74.0,49.0,29.99,North,351,2.0,6.0,41,0.00,,,0.00,,2013-05-16 15:17:00,
2013-05-16 10:28:00,74.0,48.0,29.99,WNW,284,3.0,6.0,40,0.00,,,0.00,,2013-05-16 15:28:00,
2013-05-16 10:40:00,75.0,48.0,29.99,WNW,284,2.0,6.0,39,0.00,,,0.00,,2013-05-16 15:40:00,
2013-05-16 10:50:00,76.0,46.0,29.99,NW,319,4.0,10.0,35,0.00,,,0.00,,2013-05-16 15:50:00,
2013-05-16 11:00:00,76.0,46.0,29.99,NW,319,4.0,10.0,35,0.00,,,0.00,,2013-05-16 16:00:00,
2013-05-16 11:09:00,76.0,46.0,30.00,NE,36,5.0,8.0,35,0.00,,,0.00,,2013-05-16 16:09:00,
2013-05-16 11:19:00,76.0,46.0,30.00,NE,36,5.0,8.0,35,0.00,,,0.00,,2013-05-16 16:19:00,
2013-05-16 11:30:00,77.0,47.0,29.99,NE,47,4.0,8.0,35,0.00,,,0.00,,2013-05-16 16:30:00,
2013-05-16 11:40:00,77.0,-99.9,29.99,West,269,0.0,7.0,36,0.00,,,0.00,,2013-05-16 16:40:00,
2013-05-16 11:50:00,77.0,48.0,29.99,West,269,0.0,7.0,36,0.00,,,0.00,,2013-05-16 16:50:00,
2013-05-16 12:01:00,77.0,49.0,29.99,NW,308,3.0,6.0,37,0.00,,,0.00,,2013-05-16 17:01:00,
2013-05-16 12:10:00,77.0,46.0,29.98,East,87,5.0,8.0,34,0.00,,,0.00,,2013-05-16 17:10:00,
2013-05-16 12:20:00,77.0,46.0,29.98,East,87,5.0,8.0,34,0.00,,,0.00,,2013-05-16 17:20:00,
2013-05-16 12:30:00,77.0,46.0,29.98,ESE,110,4.0,9.0,34,0.00,,,0.00,,2013-05-16 17:30:00,
2013-05-16 12:40:00,77.0,46.0,29.98,East,91,4.0,15.0,34,0.00,,,0.00,,2013-05-16 17:40:00,
2013-05-16 12:50:00,76.0,-99.9,29.98,East,82,7.0,14.0,35,0.00,,,0.00,,2013-05-16 17:50:00,
2013-05-16 13:00:00,-999.0,-99.9,29.98,East,82,7.0,14.0,35,0.00,,,0.00,,2013-05-16 18:00:00,
2013-05-16 13:10:00,75.0,45.0,29.98,ESE,109,12.0,21.0,35,0.00,,,0.00,,2013-05-16 18:10:00,
2013-05-16 13:20:00,75.0,45.0,29.98,ESE,109,12.0,21.0,35,0.00,,,0.00,,2013-05-16 18:20:00,
2013-05-16 13:30:00,-999.0,-99.9,29.98,South,177,9.0,19.0,37,0.00,,,0.00,,2013-05-16 18:30:00,
2013-05-16 13:40:00,-999.0,-99.9,29.99,ESE,123,9.0,18.0,35,0.00,,,0.00,,2013-05-16 18:40:00,
2013-05-16 13:50:00,-999.0,-99.9,29.99,ESE,123,9.0,18.0,35,0.00,,,0.00,,2013-05-16 18:50:00,
2013-05-16 14:00:00,-999.0,-99.9,29.99,ESE,108,9.0,22.0,37,0.00,,,0.00,,2013-05-16 19:00:00,
2013-05-16 14:10:00,70.0,42.0,30.00,East,100,8.0,17.0,36,0.00,,,0.00,,2013-05-16 19:10:00,
2013-05-16 14:20:00,70.0,42.0,30.00,East,100,8.0,17.0,36,0.00,,,0.00,,2013-05-16 19:20:00,
2013-05-16 14:30:00,69.0,40.0,30.01,ESE,119,10.0,17.0,35,0.00,,,0.00,,2013-05-16 19:30:00,
2013-05-16 14:40:00,70.0,-99.9,30.00,ESE,117,7.0,17.0,36,0.00,,,0.00,,2013-05-16 19:40:00,
2013-05-16 14:50:00,-999.0,-99.9,30.00,ESE,117,7.0,17.0,36,0.00,,,0.00,,2013-05-16 19:50:00,
2013-05-16 15:00:00,-999.0,-99.9,30.01,ESE,104,9.0,18.0,36,0.00,,,0.00,,2013-05-16 20:00:00,
2013-05-16 15:10:00,-999.0,-99.9,30.01,ESE,109,11.0,18.0,35,0.00,,,0.00,,2013-05-16 20:10:00,
2013-05-16 15:20:00,69.0,-99.9,30.00,East,95,10.0,18.0,37,0.00,,,0.00,,2013-05-16 20:20:00,
2013-05-16 15:30:00,69.0,42.0,30.00,East,95,10.0,18.0,37,0.00,,,0.00,,2013-05-16 20:30:00,
2013-05-16 15:40:00,-999.0,-99.9,30.00,East,88,10.0,18.0,37,0.00,,,0.00,,2013-05-16 20:40:00,
2013-05-16 15:50:00,68.0,41.0,30.00,ENE,69,4.0,16.0,38,0.00,,,0.00,,2013-05-16 20:50:00,
2013-05-16 16:00:00,68.0,-99.9,30.00,ENE,69,4.0,16.0,38,0.00,,,0.00,,2013-05-16 21:00:00,
2013-05-16 16:10:00,68.0,-99.9,30.00,ESE,121,9.0,17.0,37,0.00,,,0.00,,2013-05-16 21:10:00,
2013-05-16 16:20:00,68.0,-99.9,30.00,ESE,121,9.0,17.0,37,0.00,,,0.00,,2013-05-16 21:20:00,
2013-05-16 16:29:00,68.0,41.0,30.00,East,96,12.0,18.0,37,0.00,,,0.00,,2013-05-16 21:29:00,
2013-05-16 16:38:00,68.0,41.0,30.00,East,96,7.0,16.0,38,0.00,,,0.00,,2013-05-16 21:38:00,
2013-05-16 16:50:00,68.0,-99.9,30.00,East,96,7.0,16.0,38,0.00,,,0.00,,2013-05-16 21:50:00,
2013-05-16 17:00:00,-999.0,-99.9,30.00,SE,128,10.0,16.0,38,0.00,,,0.00,,2013-05-16 22:00:00,
2013-05-16 17:08:00,67.0,40.0,30.00,SE,132,9.0,14.0,37,0.00,,,0.00,,2013-05-16 22:08:00,
2013-05-16 17:20:00,67.0,40.0,30.00,SE,132,9.0,14.0,37,0.00,,,0.00,,2013-05-16 22:20:00,
2013-05-16 17:30:00,67.0,40.0,30.00,East,80,10.0,17.0,37,0.00,,,0.00,,2013-05-16 22:30:00,
2013-05-16 17:40:00,67.0,40.0,30.00,ENE,65,7.0,18.0,37,0.00,,,0.00,,2013-05-16 22:40:00,
2013-05-16 17:50:00,67.0,40.0,30.00,ENE,65,7.0,18.0,37,0.00,,,0.00,,2013-05-16 22:50:00,
2013-05-16 18:01:00,66.0,38.0,30.01,ESE,113,7.0,16.0,35,0.00,,,0.00,,2013-05-16 23:01:00,
2013-05-16 18:06:00,65.0,36.0,30.01,East,86,8.0,21.0,34,0.00,,,0.00,,2013-05-16 23:06:00,
2013-05-16 18:16:00,64.0,35.0,30.01,East,96,10.0,16.0,34,0.00,,,0.00,,2013-05-16 23:16:00,
2013-05-16 18:24:00,64.0,35.0,30.01,East,96,10.0,16.0,34,0.00,,,0.00,,2013-05-16 23:24:00,
2013-05-16 18:35:00,63.0,34.0,30.01,ESE,107,10.0,16.0,34,0.00,,,0.00,,2013-05-16 23:35:00,
2013-05-16 18:45:00,63.0,34.0,30.01,ESE,107,10.0,16.0,34,0.00,,,0.00,,2013-05-16 23:45:00,
2013-05-16 18:54:00,62.0,34.0,30.02,ENE,60,8.0,17.0,35,0.00,,,0.00,,2013-05-16 23:54:00,
2013-05-16 19:02:00,62.0,35.0,30.02,ESE,107,8.0,16.0,36,0.00,,,0.00,,2013-05-17 00:02:00,
2013-05-16 19:13:00,62.0,35.0,30.02,ESE,107,8.0,16.0,36,0.00,,,0.00,,2013-05-17 00:13:00,
2013-05-16 19:22:00,61.0,35.0,30.02,ESE,108,10.0,17.0,37,0.00,,,0.00,,2013-05-17 00:22:00,
2013-05-16 19:33:00,61.0,35.0,30.02,East,86,4.0,13.0,38,0.00,,,0.00,,2013-05-17 00:33:00,
2013-05-16 19:43:00,61.0,35.0,30.02,East,86,4.0,13.0,38,0.00,,,0.00,,2013-05-17 00:43:00,
2013-05-16 19:53:00,61.0,36.0,30.03,ENE,71,4.0,10.0,39,0.00,,,0.00,,2013-05-17 00:53:00,
2013-05-16 20:03:00,60.0,36.0,30.03,East,101,4.0,9.0,40,0.00,,,0.00,,2013-05-17 01:03:00,
2013-05-16 20:12:00,60.0,36.0,30.03,East,101,4.0,9.0,40,0.00,,,0.00,,2013-05-17 01:12:00,
2013-05-16 20:23:00,60.0,36.0,30.03,ESE,106,6.0,10.0,40,0.00,,,0.00,,2013-05-17 01:23:00,
2013-05-16 20:32:00,59.0,35.0,30.03,East,96,4.0,10.0,41,0.00,,,0.00,,2013-05-17 01:32:00,
2013-05-16 20:43:00,59.0,35.0,30.03,East,96,4.0,10.0,41,0.00,,,0.00,,2013-05-17 01:43:00,
2013-05-16 20:52:00,59.0,36.0,30.03,East,98,3.0,9.0,42,0.00,,,0.00,,2013-05-17 01:52:00,
2013-05-16 21:02:00,58.0,36.0,30.04,East,92,4.0,8.0,43,0.00,,,0.00,,2013-05-17 02:02:00,
2013-05-16 21:11:00,58.0,36.0,30.04,East,92,4.0,8.0,43,0.00,,,0.00,,2013-05-17 02:11:00,
2013-05-16 21:21:00,58.0,36.0,30.05,East,96,5.0,8.0,43,0.00,,,0.00,,2013-05-17 02:21:00,
2013-05-16 21:32:00,57.0,34.0,30.05,ENE,72,4.0,10.0,42,0.00,,,0.00,,2013-05-17 02:32:00,
2013-05-16 21:42:00,57.0,34.0,30.05,ENE,72,4.0,10.0,42,0.00,,,0.00,,2013-05-17 02:42:00,
2013-05-16 21:53:00,57.0,34.0,30.06,East,87,6.0,15.0,41,0.00,,,0.00,,2013-05-17 02:53:00,
2013-05-16 22:02:00,57.0,32.0,30.06,East,92,9.0,14.0,39,0.00,,,0.00,,2013-05-17 03:02:00,
2013-05-16 22:11:00,57.0,32.0,30.06,East,92,9.0,14.0,39,0.00,,,0.00,,2013-05-17 03:11:00,
2013-05-16 22:22:00,57.0,32.0,30.05,ENE,76,6.0,11.0,39,0.00,,,0.00,,2013-05-17 03:22:00,
2013-05-16 22:34:00,56.0,31.0,30.05,East,85,6.0,13.0,39,0.00,,,0.00,,2013-05-17 03:34:00,
2013-05-16 22:43:00,56.0,31.0,30.05,East,85,6.0,13.0,39,0.00,,,0.00,,2013-05-17 03:43:00,
2013-05-16 22:53:00,56.0,31.0,30.06,ESE,105,5.0,11.0,38,0.00,,,0.00,,2013-05-17 03:53:00,
2013-05-16 23:02:00,56.0,30.0,30.06,East,82,8.0,13.0,37,0.00,,,0.00,,2013-05-17 04:02:00,
2013-05-16 23:13:00,56.0,30.0,30.06,East,82,8.0,13.0,37,0.00,,,0.00,,2013-05-17 04:13:00,
2013-05-16 23:23:00,56.0,30.0,30.05,ENE,69,7.0,14.0,37,0.00,,,0.00,,2013-05-17 04:23:00,
2013-05-16 23:33:00,56.0,31.0,30.06,ENE,76,8.0,14.0,38,0.00,,,0.00,,2013-05-17 04:33:00,
2013-05-16 23:43:00,56.0,31.0,30.06,ENE,76,8.0,14.0,38,0.00,,,0.00,,2013-05-17 04:43:00,
2013-05-16 23:53:00,56.0,32.0,30.06,ESE,107,7.0,15.0,40,0.00,,,0.00,,2013-05-17 04:53:00,